[Date Prev][Date Next][Thread Prev][Thread Next] - [Date Index][Thread Index][Author Index]
2 Line ISS Keps 11-17
- Subject: [sarex] 2 Line ISS Keps 11-17
- From: "Dave Larsen PhD" <doc@xxxxxxxxxxx>
- Date: Mon, 17 Nov 2003 03:59:17 -0800
ISS
1 25544U 98067A 03321.17601097 .00019012 00000-0 20132-3 0 7802
2 25544 51.6312 328.7120 0006393 144.0386 341.8598 15.64149773284919
----
Via the sarex mailing list at AMSAT.ORG courtesy of AMSAT-NA.
To unsubscribe, send "unsubscribe sarex" to Majordomo@amsat.org
AMSAT Home